Time,TemperatureF,DewpointF,PressureIn,WindDirection,WindDirectionDegrees,WindSpeedMPH,WindSpeedGustMPH,Humidity,HourlyPrecipIn,Conditions,Clouds,dailyrainin,SoftwareType,DateUTC
2013-08-25 00:00:00,63.7,50.8,29.15,South,172,0.0,0.0,63,0.00,,,0.00,Weather View 32 v70,2013-08-25 04:00:00,
2013-08-25 00:10:00,63.3,51.3,29.15,South,172,0.0,0.0,65,0.00,,,0.00,Weather View 32 v70,2013-08-25 04:10:00,
2013-08-25 00:20:00,63.1,51.6,29.15,South,172,0.0,0.0,66,0.00,,,0.00,Weather View 32 v70,2013-08-25 04:20:00,
2013-08-25 00:30:00,62.8,51.6,29.15,South,172,0.0,0.0,67,0.00,,,0.00,Weather View 32 v70,2013-08-25 04:30:00,
2013-08-25 00:39:00,62.8,51.6,29.15,South,172,0.0,0.0,67,0.00,,,0.00,Weather View 32 v70,2013-08-25 04:39:00,
2013-08-25 00:40:00,62.6,51.5,29.15,South,172,0.0,0.0,67,0.00,,,0.00,Weather View 32 v70,2013-08-25 04:40:00,
2013-08-25 00:50:00,62.4,52.1,29.15,South,172,0.0,0.0,69,0.00,,,0.00,Weather View 32 v70,2013-08-25 04:50:00,
2013-08-25 01:00:00,62.2,51.9,29.15,South,172,0.0,0.0,69,0.00,,,0.00,Weather View 32 v70,2013-08-25 05:00:00,
2013-08-25 01:10:00,62.2,52.3,29.15,South,172,0.0,0.0,70,0.00,,,0.00,Weather View 32 v70,2013-08-25 05:10:00,
2013-08-25 01:20:00,61.9,52.0,29.15,South,172,0.0,0.0,70,0.00,,,0.00,Weather View 32 v70,2013-08-25 05:20:00,
2013-08-25 01:30:00,61.5,52.4,29.15,South,172,0.0,0.0,72,0.00,,,0.00,Weather View 32 v70,2013-08-25 05:30:00,
2013-08-25 01:40:00,61.3,52.6,29.15,South,172,0.0,0.0,73,0.00,,,0.00,Weather View 32 v70,2013-08-25 05:40:00,
2013-08-25 01:50:00,61.0,52.2,29.15,South,172,0.0,0.0,73,0.00,,,0.00,Weather View 32 v70,2013-08-25 05:50:00,
2013-08-25 02:00:00,60.8,52.1,29.15,South,172,0.0,0.0,73,0.00,,,0.00,Weather View 32 v70,2013-08-25 06:00:00,
2013-08-25 02:10:00,60.8,53.2,29.15,South,172,0.0,0.0,76,0.00,,,0.00,Weather View 32 v70,2013-08-25 06:10:00,
2013-08-25 02:20:00,60.8,53.2,29.15,South,172,0.0,0.0,76,0.00,,,0.00,Weather View 32 v70,2013-08-25 06:20:00,
2013-08-25 02:30:00,60.6,53.3,29.15,South,172,0.0,0.0,77,0.00,,,0.00,Weather View 32 v70,2013-08-25 06:30:00,
2013-08-25 02:40:00,60.6,53.7,29.15,South,172,0.0,0.0,78,0.00,,,0.00,Weather View 32 v70,2013-08-25 06:40:00,
2013-08-25 02:50:00,60.6,54.1,29.15,South,172,0.0,0.0,79,0.00,,,0.00,Weather View 32 v70,2013-08-25 06:50:00,
2013-08-25 03:00:00,59.9,53.0,29.15,South,172,0.0,0.0,78,0.00,,,0.00,Weather View 32 v70,2013-08-25 07:00:00,
2013-08-25 03:10:00,59.4,52.8,29.15,South,172,0.0,0.0,79,0.00,,,0.00,Weather View 32 v70,2013-08-25 07:10:00,
2013-08-25 03:20:00,59.0,52.8,29.15,South,172,0.0,0.0,80,0.00,,,0.00,Weather View 32 v70,2013-08-25 07:20:00,
2013-08-25 03:30:00,58.6,52.8,29.15,South,172,0.0,0.0,81,0.00,,,0.00,Weather View 32 v70,2013-08-25 07:30:00,
2013-08-25 03:40:00,58.8,53.3,29.18,South,172,0.0,0.0,82,0.00,,,0.00,Weather View 32 v70,2013-08-25 07:40:00,
2013-08-25 03:50:00,58.6,53.1,29.18,South,172,0.0,0.0,82,0.00,,,0.00,Weather View 32 v70,2013-08-25 07:50:00,
2013-08-25 04:00:00,58.3,53.1,29.18,South,172,0.0,0.0,83,0.00,,,0.00,Weather View 32 v70,2013-08-25 08:00:00,
2013-08-25 04:10:00,58.3,53.5,29.15,South,172,0.0,0.0,84,0.00,,,0.00,Weather View 32 v70,2013-08-25 08:10:00,
2013-08-25 04:20:00,58.1,53.3,29.15,South,172,0.0,0.0,84,0.00,,,0.00,Weather View 32 v70,2013-08-25 08:20:00,
2013-08-25 04:30:00,58.1,53.6,29.18,South,172,0.0,0.0,85,0.00,,,0.00,Weather View 32 v70,2013-08-25 08:30:00,
2013-08-25 04:40:00,58.5,54.3,29.18,South,172,0.0,0.0,86,0.00,,,0.00,Weather View 32 v70,2013-08-25 08:40:00,
2013-08-25 04:50:00,58.3,54.1,29.18,South,172,0.0,0.0,86,0.00,,,0.00,Weather View 32 v70,2013-08-25 08:50:00,
2013-08-25 05:00:00,58.3,54.4,29.18,South,172,0.0,0.0,87,0.00,,,0.00,Weather View 32 v70,2013-08-25 09:00:00,
2013-08-25 05:10:00,58.3,54.4,29.18,South,172,0.0,0.0,87,0.00,,,0.00,Weather View 32 v70,2013-08-25 09:10:00,
2013-08-25 05:20:00,58.1,54.6,29.18,South,172,0.0,0.0,88,0.00,,,0.00,Weather View 32 v70,2013-08-25 09:20:00,
2013-08-25 05:30:00,58.3,55.0,29.18,South,172,0.0,0.0,89,0.00,,,0.00,Weather View 32 v70,2013-08-25 09:30:00,
2013-08-25 05:40:00,58.5,55.5,29.15,South,172,0.0,0.0,90,0.00,,,0.00,Weather View 32 v70,2013-08-25 09:40:00,
2013-08-25 05:50:00,58.6,55.7,29.15,South,172,0.0,0.0,90,0.00,,,0.00,Weather View 32 v70,2013-08-25 09:50:00,
2013-08-25 06:00:00,58.8,56.2,29.15,South,172,0.0,0.0,91,0.00,,,0.00,Weather View 32 v70,2013-08-25 10:00:00,
2013-08-25 06:10:00,58.8,56.2,29.15,South,172,0.0,0.0,91,0.00,,,0.00,Weather View 32 v70,2013-08-25 10:10:00,
2013-08-25 06:20:00,58.8,56.2,29.15,South,172,0.0,0.0,91,0.00,,,0.00,Weather View 32 v70,2013-08-25 10:20:00,
2013-08-25 06:30:00,58.8,56.2,29.15,South,172,0.0,0.0,91,0.00,,,0.00,Weather View 32 v70,2013-08-25 10:30:00,
2013-08-25 06:40:00,58.8,56.2,29.15,South,172,0.0,0.0,91,0.00,,,0.00,Weather View 32 v70,2013-08-25 10:40:00,
2013-08-25 06:50:00,58.6,56.0,29.15,South,172,0.0,0.0,91,0.00,,,0.00,Weather View 32 v70,2013-08-25 10:50:00,
2013-08-25 07:00:00,58.8,56.2,29.15,South,172,0.0,0.0,91,0.00,,,0.00,Weather View 32 v70,2013-08-25 11:00:00,
2013-08-25 07:10:00,58.8,56.2,29.15,South,172,0.0,0.0,91,0.00,,,0.00,Weather View 32 v70,2013-08-25 11:10:00,
2013-08-25 07:20:00,58.6,55.7,29.15,South,172,0.0,0.0,90,0.00,,,0.00,Weather View 32 v70,2013-08-25 11:20:00,
2013-08-25 07:30:00,58.5,55.5,29.18,South,172,0.0,0.0,90,0.00,,,0.00,Weather View 32 v70,2013-08-25 11:30:00,
2013-08-25 07:40:00,58.6,55.4,29.18,South,172,0.0,0.0,89,0.00,,,0.00,Weather View 32 v70,2013-08-25 11:40:00,
2013-08-25 07:50:00,59.2,55.9,29.18,South,172,0.0,0.0,89,0.00,,,0.00,Weather View 32 v70,2013-08-25 11:50:00,
2013-08-25 08:00:00,59.7,55.8,29.18,South,172,0.0,0.0,87,0.00,,,0.00,Weather View 32 v70,2013-08-25 12:00:00,
2013-08-25 08:10:00,60.3,54.7,29.18,South,172,0.0,0.0,82,0.00,,,0.00,Weather View 32 v70,2013-08-25 12:10:00,
2013-08-25 08:20:00,61.0,53.3,29.18,South,182,0.0,0.0,76,0.00,,,0.00,Weather View 32 v70,2013-08-25 12:20:00,
2013-08-25 08:30:00,61.7,52.2,29.18,South,182,0.0,0.0,71,0.00,,,0.00,Weather View 32 v70,2013-08-25 12:30:00,
2013-08-25 08:40:00,62.8,51.2,29.15,South,190,0.0,3.0,66,0.00,,,0.00,Weather View 32 v70,2013-08-25 12:40:00,
2013-08-25 08:50:00,63.9,49.2,29.15,South,184,0.0,3.0,59,0.00,,,0.00,Weather View 32 v70,2013-08-25 12:50:00,
2013-08-25 09:00:00,64.8,49.6,29.18,South,184,0.0,3.0,58,0.00,,,0.00,Weather View 32 v70,2013-08-25 13:00:00,
2013-08-25 09:10:00,65.3,50.1,29.18,South,186,0.0,3.0,58,0.00,,,0.00,Weather View 32 v70,2013-08-25 13:10:00,
2013-08-25 09:20:00,66.0,49.3,29.18,South,186,0.0,3.0,55,0.00,,,0.00,Weather View 32 v70,2013-08-25 13:20:00,
2013-08-25 09:30:00,66.6,50.3,29.18,South,186,0.0,3.0,56,0.00,,,0.00,Weather View 32 v70,2013-08-25 13:30:00,
2013-08-25 09:40:00,67.5,50.2,29.18,SSW,213,2.0,3.0,54,0.00,,,0.00,Weather View 32 v70,2013-08-25 13:40:00,
2013-08-25 09:45:00,67.5,50.2,29.18,SSW,213,2.0,3.0,54,0.00,,,0.00,Weather View 32 v70,2013-08-25 13:45:00,
2013-08-25 10:00:00,68.9,49.4,29.18,South,178,3.0,4.0,50,0.00,,,0.00,Weather View 32 v70,2013-08-25 14:00:00,
2013-08-25 10:10:00,69.4,50.5,29.18,SSW,208,0.0,4.0,51,0.00,,,0.00,Weather View 32 v70,2013-08-25 14:10:00,
2013-08-25 10:20:00,70.3,49.7,29.18,SSW,204,2.0,4.0,48,0.00,,,0.00,Weather View 32 v70,2013-08-25 14:20:00,
2013-08-25 10:30:00,71.1,49.2,29.18,SW,236,2.0,4.0,46,0.00,,,0.00,Weather View 32 v70,2013-08-25 14:30:00,
2013-08-25 10:40:00,72.3,49.7,29.18,SSW,202,3.0,4.0,45,0.00,,,0.00,Weather View 32 v70,2013-08-25 14:40:00,
2013-08-25 10:45:00,72.3,49.7,29.18,SSW,202,3.0,4.0,45,0.00,,,0.00,Weather View 32 v70,2013-08-25 14:45:00,
2013-08-25 11:00:00,75.2,49.1,29.15,SSW,205,3.0,4.0,40,0.00,,,0.00,Weather View 32 v70,2013-08-25 15:00:00,
2013-08-25 11:10:00,76.1,49.3,29.15,SSW,204,3.0,4.0,39,0.00,,,0.00,Weather View 32 v70,2013-08-25 15:10:00,
2013-08-25 11:20:00,77.5,49.1,29.15,SSW,200,4.0,4.0,37,0.00,,,0.00,Weather View 32 v70,2013-08-25 15:20:00,
2013-08-25 11:30:00,78.4,48.4,29.15,SSW,197,3.0,4.0,35,0.00,,,0.00,Weather View 32 v70,2013-08-25 15:30:00,
2013-08-25 11:40:00,79.9,48.1,29.15,SSW,210,3.0,4.0,33,0.00,,,0.00,Weather View 32 v70,2013-08-25 15:40:00,
2013-08-25 11:46:00,79.9,48.1,29.15,SSW,210,3.0,4.0,33,0.00,,,0.00,Weather View 32 v70,2013-08-25 15:46:00,
2013-08-25 12:00:00,81.0,47.4,29.12,South,190,2.0,5.0,31,0.00,,,0.00,Weather View 32 v70,2013-08-25 16:00:00,
2013-08-25 12:10:00,81.7,47.1,29.12,SSW,203,4.0,5.0,30,0.00,,,0.00,Weather View 32 v70,2013-08-25 16:10:00,
2013-08-25 12:20:00,82.6,47.9,29.12,SW,223,0.0,5.0,30,0.00,,,0.00,Weather View 32 v70,2013-08-25 16:20:00,
2013-08-25 12:30:00,83.7,45.0,29.12,South,185,3.0,5.0,26,0.00,,,0.00,Weather View 32 v70,2013-08-25 16:30:00,
2013-08-25 12:40:00,83.7,45.0,29.12,South,179,3.0,5.0,26,0.00,,,0.00,Weather View 32 v70,2013-08-25 16:40:00,
2013-08-25 12:47:00,83.7,45.0,29.12,South,179,3.0,5.0,26,0.00,,,0.00,Weather View 32 v70,2013-08-25 16:47:00,
2013-08-25 13:00:00,86.0,47.0,29.12,WSW,255,2.0,6.0,26,0.00,,,0.00,Weather View 32 v70,2013-08-25 17:00:00,
2013-08-25 13:10:00,85.8,45.8,29.12,SW,225,0.0,6.0,25,0.00,,,0.00,Weather View 32 v70,2013-08-25 17:10:00,
2013-08-25 13:20:00,86.4,45.2,29.12,SSW,207,4.0,6.0,24,0.00,,,0.00,Weather View 32 v70,2013-08-25 17:20:00,
2013-08-25 13:40:00,86.4,47.3,29.09,NW,326,3.0,6.0,26,0.00,,,0.00,Weather View 32 v70,2013-08-25 17:40:00,
2013-08-25 13:47:00,86.4,47.3,29.09,NW,326,3.0,6.0,26,0.00,,,0.00,Weather View 32 v70,2013-08-25 17:47:00,
2013-08-25 14:00:00,85.1,48.2,29.09,West,271,4.0,5.0,28,0.00,,,0.00,Weather View 32 v70,2013-08-25 18:00:00,
2013-08-25 14:10:00,86.2,47.2,29.09,SSE,168,4.0,6.0,26,0.00,,,0.00,Weather View 32 v70,2013-08-25 18:10:00,
2013-08-25 14:20:00,86.9,46.7,29.09,South,190,3.0,6.0,25,0.00,,,0.00,Weather View 32 v70,2013-08-25 18:20:00,
2013-08-25 14:30:00,85.6,47.7,29.06,SSW,213,5.0,6.0,27,0.00,,,0.00,Weather View 32 v70,2013-08-25 18:30:00,
2013-08-25 14:40:00,86.2,47.2,29.06,SSW,203,4.0,6.0,26,0.00,,,0.00,Weather View 32 v70,2013-08-25 18:40:00,
2013-08-25 14:48:00,86.2,47.2,29.06,SSW,203,4.0,6.0,26,0.00,,,0.00,Weather View 32 v70,2013-08-25 18:48:00,
2013-08-25 15:00:00,85.6,48.7,29.06,SSW,207,3.0,6.0,28,0.00,,,0.00,Weather View 32 v70,2013-08-25 19:00:00,
2013-08-25 15:10:00,85.5,49.5,29.06,South,186,3.0,6.0,29,0.00,,,0.00,Weather View 32 v70,2013-08-25 19:10:00,
2013-08-25 15:20:00,84.9,49.9,29.06,South,188,4.0,6.0,30,0.00,,,0.00,Weather View 32 v70,2013-08-25 19:20:00,
2013-08-25 15:30:00,84.7,48.9,29.06,SSW,200,3.0,6.0,29,0.00,,,0.00,Weather View 32 v70,2013-08-25 19:30:00,
2013-08-25 15:40:00,84.6,50.5,29.03,SSW,198,3.0,5.0,31,0.00,,,0.00,Weather View 32 v70,2013-08-25 19:40:00,
2013-08-25 15:48:00,84.6,50.5,29.03,SSW,198,3.0,5.0,31,0.00,,,0.00,Weather View 32 v70,2013-08-25 19:48:00,
2013-08-25 16:00:00,84.2,50.2,29.03,SSW,210,4.0,5.0,31,0.00,,,0.00,Weather View 32 v70,2013-08-25 20:00:00,
2013-08-25 16:10:00,84.4,50.3,29.03,SSW,201,4.0,5.0,31,0.00,,,0.00,Weather View 32 v70,2013-08-25 20:10:00,
2013-08-25 16:20:00,83.8,49.9,29.03,SSW,195,3.0,5.0,31,0.00,,,0.00,Weather View 32 v70,2013-08-25 20:20:00,
2013-08-25 16:30:00,83.8,49.0,29.03,SSW,208,4.0,5.0,30,0.00,,,0.00,Weather View 32 v70,2013-08-25 20:30:00,
2013-08-25 16:40:00,83.5,49.6,29.03,SSW,202,0.0,6.0,31,0.00,,,0.00,Weather View 32 v70,2013-08-25 20:40:00,
2013-08-25 16:49:00,83.5,49.6,29.03,SSW,202,0.0,6.0,31,0.00,,,0.00,Weather View 32 v70,2013-08-25 20:49:00,
2013-08-25 17:00:00,83.3,49.4,29.03,South,180,2.0,6.0,31,0.00,,,0.00,Weather View 32 v70,2013-08-25 21:00:00,
2013-08-25 17:10:00,83.1,49.3,29.03,SW,231,4.0,6.0,31,0.00,,,0.00,Weather View 32 v70,2013-08-25 21:10:00,
2013-08-25 17:20:00,82.9,49.1,29.03,SW,220,2.0,6.0,31,0.00,,,0.00,Weather View 32 v70,2013-08-25 21:20:00,
2013-08-25 17:30:00,82.8,49.8,29.03,SSW,198,3.0,6.0,32,0.00,,,0.00,Weather View 32 v70,2013-08-25 21:30:00,
2013-08-25 17:40:00,82.6,50.5,29.00,SSW,211,4.0,6.0,33,0.00,,,0.00,Weather View 32 v70,2013-08-25 21:40:00,
2013-08-25 17:50:00,82.4,50.3,29.00,SW,214,3.0,6.0,33,0.00,,,0.00,Weather View 32 v70,2013-08-25 21:50:00,
2013-08-25 18:00:00,82.4,50.3,29.03,SW,223,2.0,6.0,33,0.00,,,0.00,Weather View 32 v70,2013-08-25 22:00:00,
2013-08-25 18:10:00,82.0,50.0,29.00,SW,223,3.0,6.0,33,0.00,,,0.00,Weather View 32 v70,2013-08-25 22:10:00,
2013-08-25 18:20:00,81.9,49.8,29.00,SSW,196,3.0,6.0,33,0.00,,,0.00,Weather View 32 v70,2013-08-25 22:20:00,
2013-08-25 18:30:00,81.7,50.5,29.00,SSW,202,3.0,6.0,34,0.00,,,0.00,Weather View 32 v70,2013-08-25 22:30:00,
2013-08-25 18:40:00,81.3,51.0,29.00,SSW,208,3.0,6.0,35,0.00,,,0.00,Weather View 32 v70,2013-08-25 22:40:00,
2013-08-25 18:50:00,81.1,52.3,29.00,SSW,207,0.0,6.0,37,0.00,,,0.00,Weather View 32 v70,2013-08-25 22:50:00,
2013-08-25 19:00:00,80.8,52.0,29.00,SSW,205,0.0,6.0,37,0.00,,,0.00,Weather View 32 v70,2013-08-25 23:00:00,
2013-08-25 19:10:00,80.4,51.7,29.00,SW,221,3.0,5.0,37,0.00,,,0.00,Weather View 32 v70,2013-08-25 23:10:00,
2013-08-25 19:20:00,80.1,52.1,29.00,SSW,192,2.0,4.0,38,0.00,,,0.00,Weather View 32 v70,2013-08-25 23:20:00,
2013-08-25 19:30:00,79.7,52.5,29.00,SSW,211,3.0,4.0,39,0.00,,,0.00,Weather View 32 v70,2013-08-25 23:30:00,
2013-08-25 19:40:00,79.3,52.2,29.00,SSW,210,0.0,4.0,39,0.00,,,0.00,Weather View 32 v70,2013-08-25 23:40:00,
2013-08-25 19:50:00,78.8,52.4,29.00,SSW,210,2.0,4.0,40,0.00,,,0.00,Weather View 32 v70,2013-08-25 23:50:00,
2013-08-25 20:00:00,78.4,52.0,29.00,SSW,194,0.0,4.0,40,0.00,,,0.00,Weather View 32 v70,2013-08-26 00:00:00,
2013-08-25 20:10:00,78.1,52.4,29.00,SSW,198,0.0,4.0,41,0.00,,,0.00,Weather View 32 v70,2013-08-26 00:10:00,
2013-08-25 20:20:00,77.5,52.6,29.00,SSW,198,0.0,4.0,42,0.00,,,0.00,Weather View 32 v70,2013-08-26 00:20:00,
2013-08-25 20:30:00,76.8,52.6,29.00,ENE,57,0.0,4.0,43,0.00,,,0.00,Weather View 32 v70,2013-08-26 00:30:00,
2013-08-25 20:40:00,76.5,52.9,29.03,SSE,161,0.0,4.0,44,0.00,,,0.00,Weather View 32 v70,2013-08-26 00:40:00,
2013-08-25 20:50:00,75.9,53.0,29.03,SSE,161,0.0,4.0,45,0.00,,,0.00,Weather View 32 v70,2013-08-26 00:50:00,
2013-08-25 21:00:00,75.7,52.8,29.03,SSE,161,0.0,0.0,45,0.00,,,0.00,Weather View 32 v70,2013-08-26 01:00:00,
2013-08-25 21:10:00,75.4,52.5,29.03,SSE,161,0.0,0.0,45,0.00,,,0.00,Weather View 32 v70,2013-08-26 01:10:00,
2013-08-25 21:20:00,75.0,52.8,29.03,South,174,0.0,0.0,46,0.00,,,0.00,Weather View 32 v70,2013-08-26 01:20:00,
2013-08-25 21:30:00,74.8,52.6,29.03,South,174,0.0,0.0,46,0.00,,,0.00,Weather View 32 v70,2013-08-26 01:30:00,
2013-08-25 21:40:00,74.8,52.6,29.03,South,183,0.0,0.0,46,0.00,,,0.00,Weather View 32 v70,2013-08-26 01:40:00,
2013-08-25 21:50:00,74.8,52.0,29.03,SSW,204,2.0,3.0,45,0.00,,,0.00,Weather View 32 v70,2013-08-26 01:50:00,
2013-08-25 22:00:00,74.8,52.0,29.00,SSW,199,3.0,3.0,45,0.00,,,0.00,Weather View 32 v70,2013-08-26 02:00:00,
2013-08-25 22:10:00,74.8,52.0,29.03,SSW,199,3.0,3.0,45,0.00,,,0.00,Weather View 32 v70,2013-08-26 02:10:00,
2013-08-25 22:20:00,74.5,51.7,29.03,SSW,199,2.0,4.0,45,0.00,,,0.00,Weather View 32 v70,2013-08-26 02:20:00,
2013-08-25 22:30:00,74.5,51.7,29.03,SSW,200,0.0,4.0,45,0.00,,,0.00,Weather View 32 v70,2013-08-26 02:30:00,
2013-08-25 22:40:00,74.3,51.5,29.03,SSW,200,3.0,4.0,45,0.00,,,0.00,Weather View 32 v70,2013-08-26 02:40:00,
2013-08-25 22:50:00,74.3,51.5,29.03,SSW,201,4.0,4.0,45,0.00,,,0.00,Weather View 32 v70,2013-08-26 02:50:00,
2013-08-25 23:00:00,74.3,50.9,29.03,SSW,204,3.0,4.0,44,0.00,,,0.00,Weather View 32 v70,2013-08-26 03:00:00,
2013-08-25 23:10:00,74.3,51.5,29.03,SSW,209,3.0,4.0,45,0.00,,,0.00,Weather View 32 v70,2013-08-26 03:10:00,
2013-08-25 23:20:00,74.1,51.4,29.03,SSW,208,3.0,4.0,45,0.00,,,0.00,Weather View 32 v70,2013-08-26 03:20:00,
2013-08-25 23:30:00,73.9,51.8,29.03,SSW,207,0.0,4.0,46,0.00,,,0.00,Weather View 32 v70,2013-08-26 03:30:00,
2013-08-25 23:40:00,73.6,51.5,29.03,SSW,202,3.0,4.0,46,0.00,,,0.00,Weather View 32 v70,2013-08-26 03:40:00,
2013-08-25 23:50:00,73.4,51.9,29.03,SSW,208,4.0,4.0,47,0.00,,,0.00,Weather View 32 v70,2013-08-26 03:50:00,